Location: Chuathbaluk
(61.5726°N, 159.2454°W)
Time: 10:35:17
(UTC+00:00)

NOAA 15 - Visible Passes

Search period start: 17 January 2021 00:00
Search period end: 27 January 2021 00:00
Orbit: 797 x 812 km, 98.7° (Epoch: 17 January)

Date Brightness Start Highest point End Pass type
(mag) Time Alt. Az. Time Alt. Az. Time Alt. Az.
17 Jan 4.7 04:04:51 10° SE 04:09:57 54° ENE 04:15:06 10° NNW visible
17 Jan 5.8 05:44:56 10° S 05:49:56 42° W 05:54:58 10° NNW visible
17 Jan 7.7 07:30:02 10° W 07:31:12 11° WNW 07:32:23 10° WNW visible
17 Jan 6.3 17:48:34 10° NNE 17:53:29 36° E 17:58:22 10° SSE visible
18 Jan 5.0 03:40:04 10° ESE 03:44:56 40° NE 03:49:51 10° NNW visible
18 Jan 5.1 05:19:25 10° S 05:24:37 59° WSW 05:29:52 10° NNW visible
18 Jan 7.3 07:02:27 10° WSW 07:05:33 16° W 07:08:40 10° NW visible
18 Jan 6.9 17:23:36 10° NNE 17:28:03 26° E 17:32:29 10° SE visible
19 Jan 5.3 03:15:26 10° ESE 03:19:59 31° NE 03:24:35 10° N visible
19 Jan 4.6 04:54:07 10° SSE 04:59:23 83° WSW 05:04:43 10° NNW visible
19 Jan 6.9 06:35:57 10° SW 06:39:59 22° W 06:44:03 10° NW visible
19 Jan 7.4 16:58:50 10° NE 17:02:33 19° E 17:06:15 10° SE visible
20 Jan 4.5 04:28:59 10° SSE 04:34:14 73° ENE 04:39:32 10° NNW visible
20 Jan 6.4 06:09:53 10° SSW 06:14:31 31° W 06:19:11 10° NNW visible
20 Jan 7.7 16:34:26 10° NE 16:36:57 13° ENE 16:39:26 10° ESE visible
20 Jan 5.7 18:12:50 10° NNE 18:18:02 50° E 18:23:12 10° S visible
21 Jan 4.7 04:04:03 10° SE 04:09:09 53° ENE 04:14:19 10° NNW visible
21 Jan 5.8 05:44:08 10° S 05:49:07 43° W 05:54:10 10° NNW visible
21 Jan 7.7 07:29:03 10° W 07:30:23 11° WNW 07:31:42 10° WNW visible
21 Jan 6.4 17:47:46 10° NNE 17:52:40 36° E 17:57:34 10° SSE visible
22 Jan 5.0 03:39:16 10° ESE 03:44:08 40° NE 03:49:03 10° NNW visible
22 Jan 5.1 05:18:36 10° S 05:23:49 60° WSW 05:29:05 10° NNW visible
22 Jan 7.3 07:01:34 10° WSW 07:04:44 16° W 07:07:54 10° NW visible
22 Jan 7.0 17:22:49 10° NNE 17:27:15 26° E 17:31:39 10° SE visible
23 Jan 5.4 03:14:39 10° ESE 03:19:12 31° NE 03:23:47 10° N visible
23 Jan 4.6 04:53:17 10° SSE 04:58:35 84° WSW 05:03:55 10° NNW visible
23 Jan 6.9 06:35:05 10° SW 06:39:10 22° W 06:43:17 10° NW visible
23 Jan 7.4 16:58:02 10° NE 17:01:43 19° E 17:05:24 10° SE visible
24 Jan 4.5 04:28:11 10° SSE 04:33:26 72° ENE 04:38:44 10° NNW visible
24 Jan 6.4 06:09:02 10° SSW 06:13:42 31° W 06:18:23 10° NNW visible
24 Jan 7.7 16:33:40 10° NE 16:36:07 13° ENE 16:38:34 10° ESE visible
24 Jan 5.7 18:12:02 10° NNE 18:17:13 50° E 18:22:23 10° S visible
25 Jan 4.7 04:03:15 10° SE 04:08:21 53° ENE 04:13:30 10° NNW visible
25 Jan 5.8 05:43:18 10° S 05:48:19 43° W 05:53:23 10° NNW visible
25 Jan 7.7 07:28:05 10° W 07:29:34 11° WNW 07:31:02 10° WNW visible
25 Jan 6.4 17:46:58 10° NNE 17:51:52 36° E 17:56:44 10° SSE visible
26 Jan 5.0 03:38:28 10° ESE 03:43:21 39° NE 03:48:16 10° NNW visible
26 Jan 5.1 05:17:47 10° S 05:23:01 61° WSW 05:28:17 10° NNW visible
26 Jan 7.4 07:00:42 10° WSW 07:03:54 16° W 07:07:09 10° NW visible
26 Jan 7.0 17:22:02 10° NNE 17:26:26 26° E 17:30:50 10° SE visible
